Location: Sungai Jaoh
(2.9167°N, 113.9167°E)
Time: 07:14:07
(UTC+00:00)

Cosmos 1833 Rocket - Pass Details

Date: 30 November 2020
Orbit: 834 x 838 km, 71.0° (Epoch: 16 January)

Event Time Altitude Azimuth Distance (km) Brightness Sun altitude
Rises 12:45:11 0° 204° (SSW) 3,383 6.4 -36.1°
Reaches altitude 10° 12:47:40 10° 207° (SSW) 2,448 5.6 -36.7°
Enters shadow 12:50:27 29° 219° (SW) 1,478 4.3 -37.3°
